User: anonymous   Login
Location: ???????
(55.4362°N, 38.1183°E)
Time: 20:21:37
(UTC+00:00)
Language:

deb Delta 139 - Orbit

View from above orbital plane
View from above orbital plane
View from above satellite
View from above satellite

Ground track
Ground track

The orbit data is extracted from the following two-line orbital elements,

1 13564U 78026FB  22016.01448814  .00000269  00000-0  22576-3 0  9995
2 13564  98.7333  24.2914 0206419  31.7924  25.8008 13.86258729997283
Epoch (UTC): 16 January 2022 00:20:51
Eccentricity: 0.0206419
inclination: 98.7333°
perigee height: 790 km
apogee height: 1093 km
right ascension of ascending node: 24.2914°
argument of perigee: 31.7924°
revolutions per day: 13.86258729
mean anomaly at epoch: 25.8008°
orbit number at epoch: 99728

The dashed part of the orbit path shows where the satellite is in the earth's shadow,  

DLR